Regional Weather Roundup
Issued by NWS

Home | Current Version | Previous Version | Graphics & Text | Print | Product List | Glossary On
Versions: 1 2 3 4 5 6 7 8 9 10 11 12 13 14 15 16 17 18 19 20 21 22 23 24 25 26 27 28 29 30 31 32 33 34 35 36 37 38 39 40 41 42 43 44 45 46 47 48 49 50
000
ASUS45 KCYS 021110
RWRWY

WYOMING REGIONAL WEATHER ROUNDUP
NATIONAL WEATHER SERVICE CHEYENNE WY
500 AM MDT TUE SEP 02 2014

NOTE:  "FAIR" INDICATES FEW OR NO CLOUDS BELOW 12,000 FEET
WITH NO SIGNIFICANT WEATHER AND/OR OBSTRUCTIONS TO VISIBILITY.

WYZ001-021200-
YELLOWSTONE NATIONAL PARK

CITY           SKY/WX    TMP DP  RH WIND       PRES   REMARKS
LK YELLOWSTONE   N/A     30  29  96 CALM      30.20F
W YELLOWSTONE  NOT AVBL

$$
WYZ002>013-054>058-071-098>099-021200-
NORTHERN WYOMING

CITY           SKY/WX    TMP DP  RH WIND       PRES   REMARKS
JACKSON        CLEAR     36  34  93 N3        30.17S
CODY             N/A    N/A N/A N/A MISG        N/A
GREYBULL       CLEAR     48  43  82 SE5       29.97F
WORLAND        CLEAR     44  40  85 CALM      29.98F
SHERIDAN       CLEAR     48  39  71 S5        29.93F
BUFFALO        CLEAR     51  35  54 W9        30.00F
GILLETTE       CLEAR     50  43  77 S12       29.99F
HULETT         FAIR      54  41  62 MISG      29.99
NEWCASTLE      FAIR      43  39  87 NE3       30.04

$$
WYZ014>020-022>026-101>103-021200-
CENTRAL WYOMING

CITY           SKY/WX    TMP DP  RH WIND       PRES   REMARKS
BIG PINEY      PTCLDY    33  30  88 N6        30.21S WCI  28
PINEDALE       MOSUNNY   32  32 100 W7        30.22S WCI  26
DUBOIS         FAIR      41  30  65 W8        30.15S
LANDER         CLEAR     47  29  49 SW12      30.07S
RIVERTON       CLEAR     49  30  48 W10       30.08R
CASPER         CLEAR     35  33  92 CALM      30.06S
DOUGLAS        CLEAR     43  41  93 S3        30.06S

$$
WYZ021-027>030-104>119-021200-
SOUTHERN WYOMING

CITY           SKY/WX    TMP DP  RH WIND       PRES   REMARKS
EVANSTON       CLEAR     45  28  51 SE7       30.19F
KEMMERER       SUNNY     39  34  81 NW9       30.22R WCI  33
FORT BRIDGER   FAIR      48  27  44 W7        30.22S
ROCK SPRINGS   CLEAR     45  32  60 W6        30.18F
DIXON          FAIR      43  34  70 NE3       30.22F
RAWLINS        CLEAR     46  32  58 CALM      30.17F
SARATOGA       FAIR      41  34  75 S9        30.20F
LARAMIE        CLEAR     42  34  73 S12       30.18F
CHEYENNE       CLEAR     46  41  82 SW3       30.16S
TORRINGTON     CLEAR     43  42  97 E7        30.05F
PINE BLUFFS    FAIR      37  37 100 S3        30.13F

$$


USA.gov is the U.S. government's official web portal to all federal, state and local government web resources and services.